Loisir ou Compétition : Rejoignez un Club de la Fédération

Résultats

GP SOMMAND

SOMMAND

MASS Dames

Jury de Compétition

Délégué Technique :
ROUX LAURENCE (MB)
D.T. Adjoint :
 
Dir. Epreuve :
BOSSUT XAVIER (MB)

Caractéristiques de la Piste

Piste :
SOMMAND
Distance :
2,5 km
Point Haut :
1525 m
Point Bas :
1500 m
Montée Tot. :
42 m
Montée Max. :
25 m
Homologation :
2015-56-1

Pénalité Appliquée :
 
Coefficient :
 

Catégorie :
U13
Style :
L

03/03/19 - FMBF0101

CltDosClt/CatCodeAnNom PrénomComClubTempsEcartPoints
1911/U13FFS26915592006PERRILLAT COLLOMB ROMANEMBSC GD BORNAN09:20.900:00.0
2952/U13FFS26922512006ORVAIN CHLOEMBSCNP ROCHOIS09:31.900:11.0
31003/U13FFS26933532006OUSTRY EMMAMBCS CHAMONIX09:38.200:17.3
4944/U13FFS26733992006PAYOT LOLAMBCS CHAMONIX09:40.900:20.0
51015/U13FFS26745682006BUISSON LEANDRAMBCS MEGEVE09:41.300:20.4
6936/U13FFS26721822006BEZAT LISE ANNEMBSC GD BORNAN09:44.500:23.6
71047/U13FFS26811852006VITTOZ NOELIEMBCS LA CLUSAZ09:47.200:26.3
8968/U13FFS26711632006MISSILLIER CHLOEMBSC GD BORNAN09:47.700:26.8
9999/U13FFS26922532006LEVET LINAMBSCNP ROCHOIS09:59.100:38.2
109710/U13FFS26923012006FAGOT SARAHMBCS CHAMONIX10:13.100:52.2
1114211/U13FFS26969012007OLIVA JULIETTEMBSALLANCHES10:13.600:52.7
1213112/U13FFS26920442007CANET CLOEMBCS LA CLUSAZ10:16.900:56.0
1310513/U13FFS26915512006BOIS LOUISONMBSC CONTAMINE10:17.300:56.4
1410614/U13FFS26936882006DUPRAZ CLEMENTINEMBVILLARD/BOEG10:17.900:57.0
1510815/U13FFS26972462006VION TIFENNMBVILLARD/BOEG10:21.301:00.4
1610316/U13FFS26928352006GERMAIN LILYMBCS CHAMONIX10:21.501:00.6
1714017/U13FFS26968642007ACHOUI MAELLEMBVILLARD/BOEG10:23.401:02.5
1813418/U13FFS26964322007PERRILLAT COLLOMB AGATHEMBSC GD BORNAN10:24.001:03.1
1913319/U13FFS26847642007GACHET EMMAMBCS MEGEVE10:25.001:04.1
2010220/U13FFS26934092006VERJAT ELISEMBCS CHAMONIX10:26.201:05.3
2110921/U13FFS26914402006ROCHE NINONMBPRAZ LYS-SOM10:30.201:09.3
2212022/U13FFS26769982006GRITTI ADRIELLELYUS CORMARANC10:32.801:11.9
2311223/U13FFS26677532006DESMARTIN CHARLINEMBSC D'AGY10:34.901:14.0
2416124/U13FFS26966012007ODILE ROSALIESASC ARECHES10:37.001:16.1
2513525/U13FFS26969032007PINEL JULIAMBSALLANCHES10:37.801:16.9
269826/U13FFS26915462006CARTIER MICHAUD LEELOUMBSC GD BORNAN10:40.001:19.1
2710727/U13FFS26916022006STENGEL LENAMBCS CHAMONIX10:40.801:19.9
2813628/U13FFS26964242007BASTARD ROSSET NELLYMBSC GD BORNAN10:49.801:28.9
2916229/U13FFS26917432007CHAUCHAIX LOUISASASC ARECHES10:52.301:31.4
3016030/U13FFS26917442007BLANC CAMILLESASC ARECHES10:53.001:32.1
3116431/U13FFS26917452007SEVESSAND AGATHESASC ARECHES10:53.301:32.4
3212132/U13FFS26759302006LEBOUBE ESTHERLYUS CORMARANC10:54.801:33.9
3311333/U13FFS26711662006CARUANA LIVMBVILLARD/BOEG10:55.801:34.9
3413234/U13FFS26964232007ALAIS ANGELEMBSC GD BORNAN10:56.701:35.8
3514635/U13FFS26788712007FAVRE BONVIN MAYAMBSC GD BORNAN11:02.001:41.1
3615236/U13FFS26969082007SCHMITT COLINEMBSALLANCHES11:04.101:43.2
3714437/U13FFS26705062007AILLOUD LUCIEMBVILLARD/BOEG11:04.401:43.5
3815638/U13FFS26998642007GASSILLOUD EMMAMBVILLARD/BOEG11:10.801:49.9
3913739/U13FFS26920372007LOUBIERE PORET ISALINEMBCS LA CLUSAZ11:11.801:50.9
4013940/U13FFS26966492007GODEY EMILIEMBCS CHAMONIX11:12.301:51.4
4111041/U13FFS26811832006MICHEL KATIAMBCS LA CLUSAZ11:12.401:51.5
4214942/U13FFS26977112007ISABELLA LOUISONMBVILLARD/BOEG11:13.301:52.4
4315143/U13FFS26793592007ESTEVES GUER PAULINEMBCS MEGEVE11:13.601:52.7
4413844/U13FFS26966502007HECKMANN ALEXANDRAMBCS CHAMONIX11:14.401:53.5
4514145/U13FFS26920412007PROFIT ELINEMBCS LA CLUSAZ11:14.701:53.8
4611746/U13FFS26982292006CAPRON LIVMBDRAGONS ANNY11:18.301:57.4
4714547/U13FFS26804682007GAUDILLAT AGATHEMBSC D'AGY11:21.702:00.8
4811148/U13FFS26936802006BRAUN JUSTINEMBVILLARD/BOEG11:23.702:02.8
4915949/U13FFS26979612007OREMUS JUDITHMBVILLARD/BOEG11:28.902:08.0
5011450/U13FFS26936912006INAN EMYMBVILLARD/BOEG11:31.402:10.5
5111651/U13FFS26914442006BESSON ZOEMBPRAZ LYS-SOM11:31.802:10.9
5211852/U13FFS26968252006CANU ANAISMBPRAZ LYS-SOM11:33.402:12.5
5314353/U13FFS26963032007ROUX HELOISEMBSC CONTAMINE11:34.602:13.7
5414754/U13FFS26902602007PASCUAL NINAMBLES GETS S.C11:40.802:19.9
5514855/U13FFS26968272007CONTANT ISALIEMBPRAZ LYS-SOM11:41.502:20.6
5611556/U13FFS26915552006PERKINS MARGAUXMBSC GD BORNAN11:53.502:32.6
5715757/U13FFS26963052007ASSEZAT ODILEMBSC CONTAMINE12:10.302:49.4
5815058/U13FFS26968702007CHARDON MATHILDEMBVILLARD/BOEG12:11.302:50.4
5912359/U13FFS26787622006MILESI EVEMBSC D'AGY12:11.602:50.7
6011960/U13FFS26874242006HUAUX NADAYASASC ARECHES12:12.502:51.6
6115561/U13FFS26830762007SAVEL LEAMBVILLARD/BOEG12:19.002:58.1
6212262/U13FFS26979522006PERCHE MAESASC ARECHES12:26.203:05.3
6316363/U13FFS26980352007REY AMELIEMBVILLARD/BOEG12:34.703:13.8
6415364/U13FFS26806682007BAUD ALIXMBLES GETS S.C13:19.903:59.0
6515865/U13FFS26975242007DAVID ELYNEMBVILLARD/BOEG13:34.704:13.8
Abandons
92FFS26914382006ROGUET LOUISEMBPRAZ LYS-SOM
Non partants
154FFS26984482007HECTOR ARIANEMBPRAZ LYS-SOM

Informations sur le traitement de la course
9 Epreuve non homologuée , Passage en doublon de l'événement n° 138546